SCP
0 0 0 0 0 0 0 0 1 1 1 1 1 1 2 2 2 2 2 2 3 4 4 3 3 3 4 5 5 5 5 5 4 3 3 3 3 2 2 2 2 1 1 2
0 0 0 0 0 0 0 0 1 1 1 1 1 2 2 2 2 2 2 2 3 4 5 5 5 4 6 7 7 7 7 6 5 4 3 3 3 3 2 2 2 2 2 2
0 0 0 0 0 0 0 0 0 1 1 1 1 2 2 2 2 2 2 2 3 4 5 7 8 9 11 13 12 11 10 8 5 4 3 3 3 3 3 3 3 2 2 1
0 0 0 0 0 0 0 0 0 1 1 1 1 2 2 2 2 2 2 3 3 3 4 6 8 12 16 18 16 12 9 7 5 4 3 3 2 2 3 3 3 2 2 1
0 0 0 0 0 0 0 0 1 1 1 1 1 1 2 2 2 3 3 3 3 3 3 4 7 10 14 16 13 9 7 6 5 4 4 3 2 2 3 3 2 2 2 1
0 0 0 0 0 0 0 0 1 1 1 1 1 1 2 2 2 3 4 4 4 3 3 4 6 8 9 9 8 7 6 6 6 5 4 3 3 3 2 2 2 2 2 2
0 0 0 0 0 0 0 0 1 1 1 1 1 1 2 2 3 4 4 4 4 3 3 4 7 7 7 6 6 7 6 5 5 4 4 4 4 3 3 2 2 2 1 1
0 0 0 0 0 0 0 0 1 1 1 1 1 2 2 3 3 3 4 4 3 3 3 4 6 7 6 5 6 7 7 6 5 4 4 4 4 3 3 3 3 2 1 2
0 0 0 0 0 0 0 0 0 0 1 1 1 2 3 3 2 3 3 4 3 3 3 5 6 7 6 5 6 7 7 7 6 5 5 4 4 4 3 3 3 2 2 2
0 0 0 0 0 0 0 0 0 0 1 1 1 2 2 2 2 2 3 3 4 4 4 5 6 7 7 6 6 6 7 7 7 6 5 4 4 4 4 4 3 2 2 2
0 0 0 0 0 0 0 0 0 0 1 1 1 2 2 2 2 2 3 3 4 4 5 5 6 8 8 7 7 7 7 7 8 7 6 5 5 4 4 4 3 3 2 2
0 0 0 0 0 0 0 0 0 0 0 1 1 1 2 2 2 3 3 4 4 5 6 6 7 9 10 11 11 9 7 7 7 7 7 7 6 4 4 4 4 3 3 3
0 0 0 0 0 0 0 0 0 0 1 1 2 2 2 3 3 3 4 4 4 6 7 7 8 11 14 18 17 13 9 7 8 9 10 9 7 5 4 4 4 3 3 4
0 0 0 0 0 0 0 0 0 0 1 1 2 2 2 3 3 3 4 4 5 6 6 7 9 13 18 23 22 16 11 9 10 11 11 9 7 6 5 4 4 3 4 4
0 0 0 0 0 0 0 0 0 0 1 2 2 2 2 3 3 3 4 5 5 6 5 6 9 14 20 24 25 19 13 9 9 10 9 8 7 7 6 5 4 4 4 4
0 0 0 0 0 0 1 1 1 1 1 1 2 2 3 3 3 4 4 5 6 5 5 5 9 14 19 24 25 20 13 8 7 7 7 6 6 6 6 6 5 5 5 5
0 0 0 0 0 1 1 1 1 1 1 2 2 3 3 3 3 4 5 5 6 5 4 5 7 12 19 23 22 18 11 7 6 6 5 5 4 4 5 6 6 5 6 6
0 0 0 1 1 1 1 1 1 1 1 2 2 3 3 3 4 4 5 7 7 6 7 7 9 13 18 19 17 13 9 7 6 5 5 4 4 3 4 5 5 6 6 6
1 1 1 1 1 1 1 1 1 1 2 2 2 3 4 5 4 5 6 8 8 8 10 11 12 14 14 12 11 9 8 6 5 5 4 4 5 5 5 5 6 7 7 6
1 1 1 1 1 1 0 1 1 2 2 2 3 3 4 5 5 6 7 7 7 8 10 11 11 11 10 9 8 8 7 6 5 5 6 6 7 7 6 6 7 7 6 6
1 1 1 1 1 1 1 1 1 2 3 2 2 3 4 6 6 7 7 6 6 7 8 9 8 8 8 8 8 8 7 7 7 7 7 7 6 6 6 6 6 6 5 4
1 1 2 2 2 2 2 2 2 3 3 2 2 3 5 6 7 7 7 7 6 7 8 8 6 7 7 7 7 8 9 9 8 7 7 6 4 4 4 5 5 4 4 3
1 1 2 2 2 3 3 2 2 3 2 2 3 5 6 7 7 6 6 6 6 8 8 6 5 5 6 6 6 7 8 8 7 5 4 4 4 4 5 5 4 4 3 3
1 2 2 2 3 3 3 3 3 2 2 3 6 8 8 8 7 6 5 5 6 7 7 5 4 4 5 5 5 5 6 6 5 4 3 3 4 4 5 4 3 3 2 2
2 2 3 3 3 3 3 4 3 3 3 5 8 10 10 10 8 7 6 6 6 7 6 5 5 5 5 5 5 4 4 4 4 3 3 3 4 4 4 3 2 2 2 2
1 2 3 4 4 4 4 4 4 4 4 7 10 12 12 10 8 7 6 6 6 6 6 5 5 5 5 5 4 4 4 4 4 3 3 3 3 3 3 2 1 1 1 1
Wind_Speed
11 9 5 4 6 7 8 5 4 1 1 2 1 3 8 9 7 9 9 8 8 9 8 7 6 6 5 4 3 3 2 1 1 1 1 1 1 1 1 1 1 1 1 1
10 9 7 5 7 8 9 6 3 1 1 1 1 3 8 10 9 8 9 9 9 9 9 7 6 6 5 4 3 3 2 1 1 1 0 0 1 1 1 1 2 2 2 2
11 5 5 6 8 7 8 5 5 4 4 5 4 4 6 9 9 9 9 9 9 9 10 8 6 5 5 5 4 3 3 2 1 1 1 1 0 1 1 1 1 1 1 1
10 7 7 8 7 7 6 5 6 7 6 5 5 3 4 7 9 10 10 10 9 8 9 9 8 6 6 6 6 4 4 3 2 1 1 1 1 1 1 1 1 1 1 1
9 8 9 9 6 6 8 8 8 9 7 6 4 1 3 8 8 10 10 10 9 9 9 9 8 7 6 6 7 6 4 3 2 1 1 1 2 1 1 1 1 1 1 1
11 11 9 8 6 7 8 10 10 7 4 6 4 3 3 5 7 9 11 10 10 9 9 8 8 8 6 6 6 6 5 3 2 1 1 1 2 3 3 3 2 1 0 1
12 12 9 7 8 7 8 7 5 5 2 4 5 2 3 5 6 8 10 10 10 10 10 9 9 8 7 7 6 7 6 4 3 2 1 1 1 1 1 2 2 2 1 1
10 8 7 7 7 7 8 8 6 6 5 5 3 2 5 6 8 9 10 10 11 10 10 9 9 8 8 8 7 7 6 4 3 2 1 0 1 1 1 1 2 2 2 2
7 6 7 7 8 7 7 8 9 7 6 6 2 5 6 5 8 9 10 10 9 9 9 9 9 8 8 8 7 7 6 4 3 2 2 1 1 1 2 2 1 2 2 1
8 8 8 6 7 8 7 8 6 6 5 5 3 2 3 5 6 7 8 8 8 9 9 9 8 8 7 8 7 7 6 4 4 3 1 1 1 1 0 1 2 2 2 2
8 9 8 6 6 6 7 7 7 6 7 7 3 1 3 5 6 6 8 9 8 8 8 8 8 7 7 7 7 6 5 5 4 3 2 1 1 1 1 1 1 2 2 2
6 7 8 9 4 4 7 9 8 7 6 6 3 1 2 4 5 5 6 8 8 7 7 8 8 8 6 6 6 5 4 5 4 4 3 2 1 1 1 1 1 1 1 1
5 7 8 8 4 5 8 9 10 10 8 5 4 2 3 4 4 5 6 7 7 7 6 8 8 7 6 6 5 4 4 4 4 4 3 2 1 1 0 1 1 1 1 1
5 9 10 9 6 5 7 8 9 9 6 6 4 1 2 2 3 4 5 4 6 7 6 7 6 6 6 5 4 4 3 3 3 3 3 2 1 1 0 1 1 1 1 1
7 9 10 12 10 9 8 9 10 10 7 7 3 2 1 1 2 4 5 5 5 6 5 6 5 5 5 5 4 4 4 3 3 2 2 2 2 1 0 1 1 1 1 1
6 7 10 11 11 11 10 10 10 9 7 6 3 1 2 0 1 3 5 5 5 4 5 6 6 6 5 4 3 4 3 3 3 2 2 2 1 1 0 0 0 0 1 1
6 6 8 11 11 10 10 8 8 6 5 6 3 1 1 0 1 2 4 4 4 4 5 5 6 6 5 6 4 3 3 3 3 2 1 1 1 1 1 1 1 1 1 1
7 6 6 9 8 11 6 2 4 5 5 5 3 2 1 0 0 3 4 4 4 4 4 4 5 6 6 6 6 4 3 2 2 2 1 1 1 1 1 1 1 0 0 1
5 5 7 8 9 10 7 3 4 5 3 4 4 4 3 2 1 3 5 5 5 4 4 4 4 5 4 4 4 3 3 2 2 2 1 1 1 1 1 1 1 1 1 1
7 6 7 8 9 10 4 2 3 4 2 4 5 5 4 4 2 2 5 6 4 4 4 5 4 4 4 3 3 3 2 2 1 1 1 1 1 1 1 1 1 1 1 1
8 8 9 9 10 6 2 3 4 4 1 4 5 5 4 3 2 2 5 5 5 5 6 5 4 4 4 4 4 3 2 1 1 2 2 1 1 1 1 1 1 1 1 1
8 8 8 8 9 4 5 3 3 4 3 3 5 5 4 3 4 5 6 6 6 5 5 5 4 4 4 4 3 3 2 2 2 2 1 1 0 2 1 1 1 1 1 2
7 5 4 3 2 2 4 4 5 5 5 5 5 4 3 3 3 4 5 5 5 5 5 4 4 4 4 3 2 2 2 2 1 1 1 0 0 1 1 1 1 1 1 2
5 4 4 2 2 2 2 3 4 4 4 4 5 4 3 2 3 4 4 4 4 4 4 4 4 3 3 3 2 2 2 1 1 1 0 1 1 1 1 1 1 1 1 1
4 3 4 4 2 1 1 1 3 3 4 4 4 4 2 1 2 4 4 3 3 3 3 3 3 3 3 3 3 2 2 1 1 1 2 3 2 2 2 1 1 1 0 0
4 4 5 3 1 1 1 3 3 2 2 2 2 3 2 1 2 3 3 3 3 3 3 2 3 3 3 3 3 2 1 1 1 2 2 3 2 2 2 2 1 1 2 2
Wind_Direction
242 244 242 258 275 283 293 302 301 17 184 235 152 153 154 157 170 155 150 151 150 143 137 135 136 133 125 119 119 111 100 82 37 22 19 0 7 355 27 69 48 5 339 357
244 247 247 237 262 274 278 289 307 346 333 274 204 213 176 167 168 162 158 159 154 149 143 145 151 145 140 134 126 123 123 117 107 91 49 320 333 315 53 39 60 13 342 334
250 249 245 253 259 267 284 308 312 302 295 262 248 226 184 161 160 161 162 160 160 156 152 153 157 153 149 145 140 121 109 110 86 65 58 10 29 328 24 38 57 7 324 339
256 256 259 265 273 286 298 316 298 288 279 270 243 252 187 173 176 167 164 160 158 156 156 158 161 159 154 147 140 118 107 103 94 83 26 339 33 10 6 23 57 10 352 360
264 261 261 268 282 297 296 300 291 287 288 292 297 299 168 169 173 165 161 158 154 156 155 157 159 159 154 150 143 131 121 115 101 79 38 351 11 343 5 31 59 46 35 15
266 266 263 268 272 273 282 286 280 289 294 286 273 261 178 152 155 156 152 151 152 154 154 154 151 150 150 146 138 133 126 124 124 106 59 33 355 349 3 0 1 349 55 51
250 250 251 258 267 265 272 284 292 297 306 270 254 254 90 101 118 130 141 149 149 148 148 150 148 145 144 138 131 123 120 123 120 115 79 36 329 315 339 342 336 338 13 53
245 239 235 245 258 275 279 284 289 302 306 296 255 132 103 96 106 119 130 139 144 147 143 145 146 147 146 140 133 128 131 136 132 121 121 81 308 311 0 358 340 3 12 37
275 270 247 233 246 260 274 287 292 294 285 284 266 122 119 113 114 117 123 132 140 138 135 141 142 141 139 139 136 133 134 139 137 132 138 124 53 32 14 350 357 12 358 8
265 283 270 253 245 233 253 284 295 294 294 281 311 42 135 154 128 120 122 125 138 138 139 141 136 133 133 134 130 133 136 139 130 124 134 132 123 107 56 20 22 11 356 2
267 275 276 258 250 278 269 263 282 297 304 307 320 17 111 139 137 131 128 128 131 133 135 133 128 130 133 132 131 133 138 140 138 131 116 92 101 119 118 64 38 22 11 12
255 267 276 272 264 273 274 277 277 279 279 289 298 82 77 114 117 119 132 131 128 126 133 136 135 133 134 131 129 134 143 145 144 138 132 130 123 94 55 58 62 48 14 3
281 264 261 255 234 244 253 265 282 288 292 293 293 153 112 91 113 128 126 129 132 131 138 137 134 132 134 130 128 136 146 144 142 140 136 133 133 125 54 36 36 20 14 16
259 265 275 279 279 265 267 272 277 283 291 293 308 115 129 92 117 113 121 137 137 133 128 126 130 130 126 124 124 130 121 121 124 126 136 142 146 138 126 66 45 12 21 38
263 265 278 285 289 279 277 275 276 272 278 285 310 310 73 129 147 139 146 155 143 136 130 123 129 120 119 116 121 120 112 102 98 102 106 111 122 146 140 92 64 28 15 3
253 277 285 280 279 281 279 278 273 276 284 287 297 336 15 192 123 131 142 145 141 150 148 141 141 128 125 121 122 116 111 112 106 93 83 82 82 82 84 97 164 68 30 4
249 257 271 275 271 276 263 271 283 292 300 302 301 1 34 145 127 132 137 161 160 155 146 144 141 140 136 132 119 105 105 111 111 105 97 78 69 52 22 323 39 40 4 358
263 267 265 270 278 268 274 295 294 296 304 316 336 28 3 338 161 126 139 140 135 136 131 130 134 138 140 136 130 130 127 119 121 118 97 76 59 51 30 353 9 8 337 350
254 254 266 267 263 258 258 268 281 274 291 348 352 357 346 351 348 102 97 103 115 122 119 118 120 121 116 122 127 130 129 130 119 104 88 62 24 2 4 3 13 8 338 314
233 231 249 264 271 266 268 332 308 263 236 15 6 358 353 357 321 63 85 86 101 113 116 112 114 117 117 114 114 117 111 126 134 117 99 65 9 3 359 357 4 351 307 288
214 227 239 253 262 262 330 339 305 271 17 8 0 350 355 6 357 99 108 108 111 109 108 106 106 109 106 105 109 110 100 99 107 101 98 74 32 340 353 29 338 327 331 310
228 222 228 243 256 262 12 356 25 39 41 22 9 4 17 29 77 104 111 108 109 111 115 122 114 109 108 112 124 125 110 85 86 94 92 89 21 318 18 21 321 311 298 291
244 249 248 241 222 85 25 30 40 37 30 18 12 16 35 47 82 105 112 111 121 129 126 131 132 129 123 119 130 131 111 99 86 86 75 58 348 341 305 261 270 274 280 293
229 237 245 239 188 109 60 49 36 34 24 19 14 10 28 58 84 100 112 120 132 136 134 140 141 137 131 130 126 112 100 100 105 78 313 261 236 237 256 268 265 266 304 320
303 259 251 240 215 208 230 57 49 23 22 26 12 346 1 64 101 112 123 133 132 126 133 138 141 146 145 128 115 126 129 140 190 225 243 248 240 233 228 241 282 272 13 48
296 286 255 256 201 222 109 58 38 27 16 10 343 339 4 61 118 118 124 130 131 136 142 159 162 163 162 151 139 137 156 200 234 244 252 256 252 243 241 215 202 137 176 167